Regional Weather Roundup
Issued by NWS

Home | Current Version | Previous Version | Graphics & Text | Print | Product List | Glossary On
Versions: 1 2 3 4 5 6 7 8 9 10 11 12 13 14 15 16 17 18 19 20 21 22 23 24 25 26 27 28 29 30 31 32 33 34 35 36 37 38 39 40 41 42 43 44 45 46 47 48 49 50
000
ASUS43 KMPX 280410
RWRMN
WEATHER ROUNDUP FOR MINNESOTA
NATIONAL WEATHER SERVICE TWIN CITIES/CHANHASSEN MN
1100 PM CDT SUN JUL 27 2014


NOTE: "FAIR" INDICATES FEW OR NO CLOUDS BELOW 12,000 FEET WITH NO
SIGNIFICANT WEATHER AND/OR OBSTRUCTIONS TO VISIBILITY. N/A MEANS
CURRENT SKY AND/OR WEATHER CONDITIONS ARE NOT AVAILABLE.

MNZ060>063-068>070-280500-
   Twin Cities Metro

CITY           SKY/WX    TMP DP  RH WIND       PRES   REMARKS
TWIN CITIES    MOCLDY    66  57  72 N6        30.12R
ST PAUL        MOCLDY    64  56  75 N5        30.12R
CRYSTAL        CLOUDY    66  57  72 N7        30.11R
BLAINE         CLOUDY    64  61  88 N6        30.12R
LAKEVILLE      MOCLDY    63  55  77 NE6       30.12R
EDEN PRAIRIE   CLOUDY    66  58  75 N7        30.11R
SOUTH ST PAUL  PTCLDY    64  55  70 CALM      30.12R
LAKE ELMO      MOCLDY    61  55  82 CALM      30.12S
$$
MNZ001>005-007-008-013>017-022>024-027-028-280500-
   Northwest Minnesota

CITY           SKY/WX    TMP DP  RH WIND       PRES   REMARKS
BEMIDJI        CLOUDY    60  55  83 NW7       30.18R
HALLOCK        PTCLDY    61  55  82 N7        30.21R
ROSEAU         CLEAR     57  54  88 NW7       30.19S
WARROAD        PTCLDY    59  54  82 W6        30.19R
THIEF RVR FALL CLOUDY    61  57  88 NW6       30.21R
CROOKSTON      CLOUDY    61  59  94 NW6       30.21S
FOSSTON        CLOUDY    59  55  88 NW5       30.20S
DETROIT LAKES  MOCLDY    61  57  88 NW7       30.21R
MOORHEAD       CLEAR     59  59 100 N5        30.21S
PARK RAPIDS    CLOUDY    62  58  86 N9        30.18R
$$
MNZ006-009>011-018-025>026-280500-
   North Central Minnesota

CITY           SKY/WX    TMP DP  RH WIND       PRES   REMARKS
BAUDETTE       CLEAR     58  54  86 CALM      30.17R
FLAG ISLAND    PTCLDY    64  55  72 NW9       30.16R
INTL FALLS     CLEAR     52  51  97 CALM      30.14R
WASKISH        CLOUDY    63  55  77 NW7       30.17R
BIG FORK       PTCLDY    55  54  94 NW1       30.16R
LONGVILLE      CLOUDY    63  55  77 CALM      30.16R
GRAND RAPIDS   CLEAR     57  54  88 CALM      30.15R
CRANE LAKE     CLEAR     52  50  93 CALM      30.15R
ORR            CLOUDY    55  52  88 CALM      30.12R
COOK           MOCLDY    55  54  94 CALM      30.14R
$$
MNZ012-019>021-037-280500-
   Northeast Minnesota

CITY           SKY/WX    TMP DP  RH WIND       PRES   REMARKS
DULUTH         PTCLDY    57  54  89 NW5       30.11R
ELY            CLEAR     52  50  93 CALM      30.13R
HIBBING        PTCLDY    55  52  89 NW3       30.13R
EVELETH        PTCLDY    59  52  77 NW6       30.13R
DULUTH HARBOR  MOCLDY    64  59  82 NW10      30.10R
TWO HARBORS    CLEAR     57  52  82 N3        30.08R
SILVER BAY     CLEAR     54  54 100 CALM      30.09R
GRAND MARAIS     N/A     53  49  86 CALM      30.08R
G MARAIS ARPRT   N/A     55  48  76 NW3       30.12R
$$
MNZ029>031-032-039>041-046>048-054>057-064-280500-
   West Central Minnesota

CITY           SKY/WX    TMP DP  RH WIND       PRES   REMARKS
FERGUS FALLS   CLOUDY    63  55  77 N5        30.19R
WHEATON        CLOUDY    61  55  82 NW8       30.21R
MORRIS         MOCLDY    61  57  88 NW8       30.18R
ALEXANDRIA     CLOUDY    62  59  90 N13G21    30.19R FOG
ELBOW LAKE     CLOUDY    62  58  87 N9        30.18R
WADENA         CLOUDY    61  57  88 NW3       30.18R
GLENWOOD       MOCLDY    63  59  88 N8        30.18R
APPLETON       CLOUDY    63  55  77 NW8       30.18R
BENSON         CLOUDY    63  57  82 N9        30.17S
ORTONVILLE     MOCLDY    63  55  77 N7        30.19R
MADISON        PTCLDY    64  57  77 N9        30.19R
WILLMAR        MOCLDY    64  61  88 N13       30.17R
$$
MNZ033>034-036-042>043-049>051-058-059-280500-
   Central Minnesota

CITY           SKY/WX    TMP DP  RH WIND       PRES   REMARKS
ST CLOUD       PTCLDY    64  57  78 CALM      30.14R
SAUK CENTRE    CLOUDY    62  60  92 N6        30.17R
PAYNESVILLE    CLOUDY    61  59  92 W7        30.16R
AITKIN         CLOUDY    63  55  77 CALM      30.14R
PINE RIVER     CLOUDY    64  57  77 NW6       30.19R
BRAINERD       CLOUDY    64  55  72 N8        30.16R
STAPLES        CLOUDY    61  55  82 N5        30.17R
LONG PRAIRIE   CLOUDY    61  59  94 NW5       30.17R
LITTLE FALLS   CLOUDY    63  54  72 CALM      30.16R
LITCHFIELD     RAIN      64  64 100 N5        30.15R
BUFFALO        CLOUDY    64  57  78 NW5       30.15R
MAPLE LAKE     CLOUDY    64  59  83 CALM      30.15R
$$
MNZ037-044-045-052-053-280500-
   East Central Minnesota

CITY           SKY/WX    TMP DP  RH WIND       PRES   REMARKS
PRINCETON      CLOUDY    63  57  82 CALM      30.14R
MORA           CLOUDY    59  54  82 CALM      30.15R
CAMBRIDGE      CLOUDY    64  54  68 CALM      30.11S
RUSH CITY      CLOUDY    61  55  81 CALM      30.12R
MOOSE LAKE     CLEAR     57  55  94 NW6       30.11R
HINCKLEY       CLOUDY    61  57  88 CALM      30.12S
CLOQUET        CLEAR     55  54  94 W5        30.12R
MCGREGOR       PTCLDY    59  55  88 NW3       30.14R
$$
MNZ071>073-080-081-089-090-097-098-280500-
   Southwest Minnesota

CITY           SKY/WX    TMP DP  RH WIND       PRES   REMARKS
MONTEVIDEO     CLOUDY    63  57  82 N13       30.18S
GRANITE FALLS  CLOUDY    61  57  87 NW9       30.18S
CANBY          CLOUDY    63  55  77 NW7       30.21R
MARSHALL       CLEAR     59  54  82 NW9       30.18R
REDWOOD FALLS  CLEAR     64  57  78 NW12      30.15R
OLIVIA         PTCLDY    63  57  82 NW6       30.15R
PIPESTONE      PTCLDY    61  55  82 N7        30.21R
WINDOM         PTCLDY    61  55  82 NW10      30.17R
WORTHINGTON    CLEAR     57  55  94 NW9       30.20R
JACKSON        CLEAR     61  55  82 NW10      30.17R
TRACY          MOCLDY    60  57  89 CALM      30.19R
SLAYTON        CLEAR     59  55  87 CALM      30.20S
$$
MNZ065>067-074>077-082>085-091>093-280500-
   South Central Minnesota

CITY           SKY/WX    TMP DP  RH WIND       PRES   REMARKS
MANKATO        CLOUDY    64  57  77 N9        30.12R
NEW ULM        CLOUDY    63  63 100 NW8       30.13S
ST JAMES       MOCLDY    66  57  72 NW8       30.15R
FAIRMONT       CLOUDY    64  55  72 N10       30.13R
GLENCOE        MOCLDY    65  61  87 CALM      30.13R
FARIBAULT      MOCLDY    66  54  63 N8        30.12R
OWATONNA       PTCLDY    64  55  72 NE10G16   30.11S
WASECA         MOCLDY    61  55  82 NE3       30.13R
ALBERT LEA     CLOUDY    64  61  88 N13G20    30.10R
$$
MNZ078>079-086>088-094>096-280500-
   Southeast Minnesota

CITY           SKY/WX    TMP DP  RH WIND       PRES   REMARKS
ROCHESTER      CLEAR     60  56  86 N13       30.11R
RED WING       PTCLDY    61  55  82 CALM      30.10R
STANTON        MOCLDY    63  56  78 N3        30.11R
DODGE CENTER   CLEAR     61  57  88 N7        30.11R
WINONA         CLEAR     61  54  77 NW3       30.08R
AUSTIN         PTCLDY    63  57  82 N10G17    30.09R
PRESTON        CLEAR     60  59  98 N6        30.09R
$$
ABBREVIATIONS USED IN REMARKS
   TC - TEMPERATURES IN CELSIUS
  WCI - WIND CHILL INDEX
   HX - HEAT INDEX
  VSB - VISIBILITY
$$



USA.gov is the U.S. government's official web portal to all federal, state and local government web resources and services.